DELTA 1 DEB, 18463

Orbit data source: Space-Track

DELTA 1 DEB, 18463 is space debris in SSO originally from a launch on Thu, 29 Jul 1976 UTC launched from the Air Force Western Test Range (AFWTR). Debris objects in space refer to the collection of defunct objects orbiting the Earth. Examples of debris include non-operational satellites, rocket bodies, and fragments generated from explosions, collisions, or faulty payload assembly.

Loading next visibility...
Identifier
18463, 1976-077FA
Orbit
SSO
Country
Flag of USUS
Related business
Manufacturer
Unknown
Mission
Spacecraft
Bus & Motor
Unknown
Mass
Unknown
Launch date (UTC)
1976-07-29 (49 years ago)
Launch vehicle
Unknown
Launch site
Air Force Western Test Range (AFWTR)
Object type
Payload
Rocket body
Debris
Shape & HBR
Unknown shape, 0.1 m
Radar Cross Section
Small (<0.1 m²)

Expand to show TLE details & history
Last TLE update: 2 days ago

TLE from 2 days ago
0 DELTA 1 DEB
1 18463U 76077FA  25291.13102169  .00000033  00000-0  71645-3 0  9993
2 18463 102.5552 261.2292 0094711 333.5285  92.4696 12.23604797198790
Epoch: 2025-10-18T03:08Z
TLE epoch observation values (Epoch: 2025-10-18T03:08:40.274Z)
Latitude
64.11719°
Longitude
160.0159°
Altitude
1,591.673 km
Speed
7.077 km/s
True Right ascension
15h 36m 12s
True Declination
63° 59' 46"
Sunlit
Object was in daylight at epoch
Visualization orbit readout
Latitude
Unknown
Longitude
Unknown
Altitude
Unknown
Speed
Unknown
Apparent Right ascension
Unknown
Apparent Declination
Unknown
Sunlit
N/A
Visualization observer readout
Local Sidereal Time
12:53:14
Azimuth
Unknown
Elevation
Unknown
Doppler factor
Unknown
Orbital elements
Apogee altitude
1,649.829 km
Perigee altitude
1,499.188 km
Semi-major axis
7,952.645 km
Eccentricity
0.00947
Inclination
102.5552°
RAAN
261.2292°
Arg. of periapsis
333.5285°
True anomaly
93.55328°
Mean anomaly
92.4696°
Eccentric anomaly
93.0115°
Mean motion
3.06038 °/min
Orbital period
117.63 mins
BSTAR
0.00071645
Loading maneuver chart data...
Computing Atmospheric mass density...
Loading historical data...
Loading historical data...
Loading historical data...
Loading historical data...
Loading historical data...
Loading historical data...
Loading historical data...

Documentation

Showing up to 5 results
|